Wink, TX

4:07 AM CDT on April 24, 2017 (GMT -0500)
Winkler County

Weather History for KINK - October, 2012

Change the Weather History Date:

Saturday, October 27, 2012

  Actual Average Record
Temperature  
Mean Temperature 46 °F -  
Max Temperature 55 °F 74 °F 91 °F (1988)
Min Temperature 36 °F 46 °F 32 °F (1997)
Degree Days  
Heating Degree Days 20    
Moisture  
Dew Point 20 °F    
Average Humidity 36    
Maximum Humidity 62    
Minimum Humidity 17    
Precipitation  
Precipitation 0.00 in - - ()
Sea Level Pressure  
Sea Level Pressure 30.20 in    
Wind  
Wind Speed 8 mph (ESE)    
Max Wind Speed 13 mph    
Max Gust Speed 17 mph    
Visibility 10 miles    
Events      
Averages and records for this station are not official NWS values.
T = Trace of Precipitation, MM = Missing Value Source: NWS Daily Summary

Daily Weather History Graph

Daily Weather History Graph

Search for Another Location

Airport or City:

Trip Planner

Search our weather history database for the weather conditions in past years. The results will help you decide how hot, cold, wet, or windy it might be!

Date:

Astronomy

Oct. 27, 2012 Rise Set
Actual Time 8:05 AM CDT 7:07 PM CDT
Civil Twilight 7:40 AM CDT 7:32 PM CDT
Nautical Twilight 7:11 AM CDT 8:00 PM CDT
Astronomical Twilight 6:43 AM CDT 8:29 PM CDT
Moon 5:50 PM CDT (10/27) 6:07 AM CDT (10/27)
Length of Visible Light 11h 51m
Length of Day
11h 01m
Waxing Gibbous, 96% of the Moon is Illuminated
Oct 27
Waxing Gibbous
Oct 29
Full
Nov 6
Last Quarter
Nov 13
New
Nov 20
First Quarter

Hourly Weather History & Observations

Time (CDT) Temp. Windchill Dew Point Humidity Pressure Visibility Wind Dir Wind Speed Gust Speed Precip Events Conditions
12:53 AM 50.0 °F - 19.9 °F 31% 30.29 in 10.0 mi East 10.4 mph - N/A   Overcast
1:53 AM 48.9 °F - 19.9 °F 32% 30.27 in 10.0 mi East 9.2 mph - N/A   Overcast
2:53 AM 46.9 °F - 19.0 °F 33% 30.27 in 10.0 mi East 8.1 mph - N/A   Overcast
3:53 AM 45.0 °F 40.6 °F 18.0 °F 34% 30.26 in 10.0 mi ENE 8.1 mph - N/A   Overcast
4:53 AM 44.1 °F 40.1 °F 19.9 °F 38% 30.25 in 10.0 mi ENE 6.9 mph - N/A   Overcast
5:53 AM 39.9 °F 36.7 °F 23.0 °F 51% 30.26 in 10.0 mi East 4.6 mph - N/A   Clear
6:53 AM 37.9 °F 35.5 °F 24.1 °F 57% 30.27 in 10.0 mi East 3.5 mph - N/A   Clear
7:53 AM 36.0 °F 33.3 °F 24.1 °F 62% 30.29 in 10.0 mi ENE 3.5 mph - N/A   Clear
8:53 AM 39.9 °F 35.8 °F 24.1 °F 53% 30.28 in 10.0 mi East 5.8 mph - N/A   Clear
9:53 AM 44.1 °F 38.6 °F 21.9 °F 42% 30.29 in 10.0 mi East 10.4 mph - N/A   Clear
10:53 AM 46.9 °F - 19.9 °F 34% 30.28 in 10.0 mi SE 10.4 mph - N/A   Clear
11:53 AM 48.0 °F - 18.0 °F 30% 30.26 in 10.0 mi SE 9.2 mph - N/A   Overcast
12:53 PM 50.0 °F - 18.0 °F 28% 30.23 in 10.0 mi ESE 6.9 mph - N/A   Clear
1:53 PM 53.1 °F - 14.0 °F 21% 30.18 in - SSE 12.7 mph 17.3 mph N/A   Overcast
2:53 PM 54.0 °F - 9.0 °F 17% 30.13 in - SSE 11.5 mph 17.3 mph N/A   Scattered Clouds
3:53 PM 55.0 °F - 16.0 °F 22% 30.10 in - South 8.1 mph - N/A   Clear
4:53 PM 55.9 °F - 16.0 °F 21% 30.08 in - SE 9.2 mph - N/A   Clear
5:53 PM 55.0 °F - 18.0 °F 23% 30.07 in - SE 11.5 mph - N/A   Clear
6:53 PM 53.1 °F - 19.0 °F 26% 30.09 in - SE 8.1 mph - N/A   Clear
7:53 PM 48.9 °F - 21.9 °F 35% 30.11 in - SE 6.9 mph - N/A   Clear
8:53 PM 46.0 °F 43.9 °F 23.0 °F 40% 30.13 in - ESE 4.6 mph - N/A   Clear
9:53 PM 45.0 °F 42.6 °F 21.9 °F 40% 30.13 in - ESE 4.6 mph - N/A   Clear
10:53 PM 42.8 °F 39.3 °F 23.0 °F 46% 30.18 in - East 5.8 mph - N/A   Clear
11:53 PM 42.1 °F 39.2 °F 21.9 °F 45% 30.17 in - East 4.6 mph - N/A   Clear